Stations météo

réclame
Mon MeteoGroup
Cordoba Aeropuerto (AWS), Espagne (8410): Température de l'air & dewpoint: 17.10.2018 07:00:00 - 23.10.2018 07:00:00 (CEST)Cordoba Aeropuerto (AWS), Espagne (8410): Vitesse du vent: 17.10.2018 07:00:00 - 23.10.2018 07:00:00 (CEST)Cordoba Aeropuerto (AWS), Espagne (8410): Direction du vent: 17.10.2018 07:00:00 - 23.10.2018 07:00:00 (CEST)Cordoba Aeropuerto (AWS), Espagne (8410): reduced air pressure: 17.10.2018 07:00:00 - 23.10.2018 07:00:00 (CEST)Cordoba Aeropuerto (AWS), Espagne (8410): visibility: 17.10.2018 07:00:00 - 23.10.2018 07:00:00 (CEST)Cordoba Aeropuerto (AWS), Espagne (8410): Quantités de précipitations: 17.10.2018 07:00:00 - 23.10.2018 07:00:00 (CEST)
Date & Time tt [°C] td [°C] ff [km/h] ff [knt] dd ppp [hPa] vv [km] rr [mm]
23.10.2018 07:00:00 16,3 15,7 5 3 ENE 1022,1 - -
23.10.2018 06:00:00 16,3 15,7 8 4 E 1021,7 - -
23.10.2018 05:00:00 16,1 15,5 9 5 ENE 1022,2 - -
23.10.2018 04:00:00 16,3 15,7 4 2 WSW 1021,9 - -
23.10.2018 03:00:00 16,5 15,9 4 2 NNE 1021,6 - -
23.10.2018 02:00:00 16,9 15,9 4 2 S 1022,0 - -
23.10.2018 01:00:00 16,9 15,9 8 4 W 1021,8 - -
23.10.2018 00:00:00 17,2 16,2 5 3 S 1021,3 - -
22.10.2018 23:00:00 17,7 16,2 2 1 S 1020,7 - -
22.10.2018 22:00:00 18,4 16,2 5 3 WNW 1020,3 - -
22.10.2018 21:00:00 19,8 16,9 0 0 N 1019,5 - -
22.10.2018 20:00:00 21,6 16,1 4 2 N 1019,1 15 -
22.10.2018 19:00:00 25,2 15,8 4 2 W 1018,7 - -
22.10.2018 18:00:00 26,6 14,7 4 2 SSW 1018,4 - -
22.10.2018 17:00:00 26,5 15,2 4 2 S 1018,5 5 -
22.10.2018 16:00:00 25,9 14,7 5 3 SSE 1018,9 - -
22.10.2018 15:00:00 25,4 15,8 8 4 SSE 1019,4 - -
22.10.2018 14:00:00 23,9 16,0 11 6 ENE 1019,9 4,0 -
22.10.2018 13:00:00 22,1 15,5 15 8 E 1020,8 - -
22.10.2018 12:00:00 20,4 15,6 15 8 E 1020,9 - -
22.10.2018 11:00:00 18,5 15,2 9 5 ESE 1021,3 2,5 -
22.10.2018 10:00:00 15,5 15,2 5 3 E 1021,2 - -
22.10.2018 09:00:00 13,3 13,0 4 2 NE 1020,7 - -
22.10.2018 08:00:00 13,6 13,1 0 0 N 1020,6 0,5 -
22.10.2018 07:00:00 14,3 13,8 2 1 SE 1020,3 - -
22.10.2018 06:00:00 14,9 14,4 8 4 N 1019,9 - -
22.10.2018 05:00:00 14,8 14,3 4 2 ESE 1019,6 - -
22.10.2018 04:00:00 15,3 14,7 5 3 ENE 1020,1 - -
22.10.2018 03:00:00 15,8 15,2 5 3 E 1020,1 - -
22.10.2018 02:00:00 16,0 15,4 8 4 NE 1020,3 - -
22.10.2018 01:00:00 16,2 15,2 8 4 ENE 1020,2 - -
22.10.2018 00:00:00 16,7 15,9 4 2 E 1020,0 - -
21.10.2018 23:00:00 17,5 16,9 4 2 N 1019,6 - -
21.10.2018 22:00:00 17,9 17,3 5 3 ENE 1018,8 - -
21.10.2018 21:00:00 18,3 17,2 5 3 N 1018,4 - -
21.10.2018 20:00:00 19,0 17,0 8 4 W 1018,2 - -
21.10.2018 19:00:00 19,6 16,4 9 5 WSW 1017,7 - -
21.10.2018 18:00:00 21,0 16,3 13 7 WSW 1017,2 - -
21.10.2018 17:00:00 20,9 17,3 11 6 SSW 1017,3 - -
21.10.2018 16:00:00 19,4 17,9 8 4 SSW 1017,6 - -
21.10.2018 15:00:00 17,8 17,2 9 5 WSW 1018,7 - -
21.10.2018 14:00:00 17,0 16,5 9 5 SW 1019,4 - -
21.10.2018 13:00:00 16,6 16,1 9 5 W 1019,8 - -
21.10.2018 12:00:00 16,6 16,1 8 4 WSW 1019,6 - -
21.10.2018 11:00:00 16,0 15,7 5 3 WNW 1019,5 10 -
21.10.2018 10:00:00 16,0 15,7 4 2 E 1019,0 - -
21.10.2018 09:00:00 16,0 15,7 13 7 NE 1017,8 - -
21.10.2018 08:00:00 15,8 15,3 11 6 NE 1017,5 - -
21.10.2018 07:00:00 16,0 15,4 16 9 NNE 1017,1 - -
21.10.2018 06:00:00 16,2 15,6 5 3 SSW 1017,9 - -
21.10.2018 05:00:00 16,2 15,4 13 7 ENE 1017,1 - -
21.10.2018 04:00:00 16,3 15,7 18 10 ENE 1016,5 - -
21.10.2018 03:00:00 16,0 15,7 11 6 NNE 1017,0 - -
21.10.2018 02:00:00 15,9 15,4 4 2 ESE 1017,5 - -
21.10.2018 01:00:00 16,0 15,5 4 2 SW 1017,8 - -
21.10.2018 00:00:00 16,1 15,6 0 0 N 1017,0 - -
20.10.2018 23:00:00 16,1 15,5 16 9 W 1017,3 - -
20.10.2018 22:00:00 16,7 15,2 22 12 WSW 1016,1 - -
20.10.2018 21:00:00 17,0 15,3 8 4 SW 1015,1 - -
20.10.2018 20:00:00 17,7 15,1 2 1 ESE 1015,0 25 -
20.10.2018 19:00:00 19,5 15,1 4 2 SE 1014,2 - -
20.10.2018 18:00:00 20,0 13,9 13 7 NE 1014,1 - -
20.10.2018 17:00:00 20,3 14,2 16 9 ENE 1014,2 25 -
20.10.2018 16:00:00 18,5 15,2 18 10 ENE 1014,6 - -
20.10.2018 15:00:00 16,3 13,6 18 10 ENE 1015,4 - -
20.10.2018 14:00:00 15,8 12,8 18 10 ENE 1016,1 10 -
20.10.2018 13:00:00 16,0 12,2 15 8 ENE 1016,7 - -
20.10.2018 12:00:00 14,9 12,4 8 4 E 1016,6 - -
20.10.2018 11:00:00 13,7 12,1 8 4 E 1016,1 20 -
20.10.2018 10:00:00 12,6 11,7 5 3 E 1015,7 - -
20.10.2018 09:00:00 11,2 10,6 4 2 N 1015,2 - -
20.10.2018 08:00:00 10,8 10,2 4 2 SSE 1014,7 25 -
20.10.2018 07:00:00 10,9 10,3 4 2 NNE 1015,1 - -
20.10.2018 06:00:00 11,4 10,8 4 2 WSW 1014,7 - -
20.10.2018 05:00:00 11,5 10,9 4 2 NE 1014,3 - -
20.10.2018 04:00:00 12,0 11,4 5 3 NNE 1014,6 - -
20.10.2018 03:00:00 11,9 11,3 2 1 E 1014,5 - -
20.10.2018 02:00:00 12,0 11,1 0 0 N 1014,6 - -
20.10.2018 01:00:00 12,5 11,1 0 0 N 1014,3 - -
20.10.2018 00:00:00 13,4 11,8 8 4 SSW 1014,6 - -
19.10.2018 23:00:00 13,9 12,1 4 2 W 1014,5 - -
19.10.2018 22:00:00 14,8 11,8 0 0 N 1014,0 - -
19.10.2018 21:00:00 15,8 12,5 5 3 WSW 1013,5 - -
19.10.2018 20:00:00 17,4 12,3 5 3 WNW 1012,7 30 -
19.10.2018 19:00:00 20,2 11,2 8 4 S 1011,5 - -
19.10.2018 18:00:00 22,7 10,2 11 6 S 1011,3 - -
19.10.2018 17:00:00 22,9 10,8 8 4 S 1011,1 30 -
19.10.2018 16:00:00 22,7 10,7 4 2 S 1011,1 - -
19.10.2018 15:00:00 20,9 11,9 9 5 ENE 1011,5 - -
19.10.2018 14:00:00 19,9 12,6 8 4 E 1011,9 30 -
19.10.2018 13:00:00 18,6 12,8 13 7 E 1012,2 - -
19.10.2018 12:00:00 16,9 13,2 15 8 E 1012,1 - -
19.10.2018 11:00:00 15,1 12,8 16 9 ENE 1012,5 25 -
19.10.2018 10:00:00 13,8 13,0 5 3 ESE 1012,3 - -
19.10.2018 09:00:00 10,9 10,3 4 2 E 1012,1 - -
19.10.2018 08:00:00 11,5 10,9 4 2 SE 1011,3 20 -
19.10.2018 07:00:00 12,1 11,3 4 2 SE 1010,9 - -
19.10.2018 06:00:00 12,4 11,6 8 4 ESE 1011,1 - -
19.10.2018 05:00:00 12,7 11,9 5 3 ENE 1010,7 - -
19.10.2018 04:00:00 13,3 12,5 4 2 E 1011,0 - -
19.10.2018 03:00:00 13,2 12,4 4 2 NNE 1011,4 - -
19.10.2018 02:00:00 13,0 12,2 2 1 NNW 1010,7 - -
19.10.2018 01:00:00 13,2 12,3 0 0 N 1011,0 - -
19.10.2018 00:00:00 13,4 12,5 11 6 E 1011,7 - -
18.10.2018 23:00:00 13,5 12,6 8 4 ENE 1011,8 - -
18.10.2018 22:00:00 13,5 12,6 11 6 NE 1011,2 - -
18.10.2018 21:00:00 13,7 12,6 11 6 E 1011,0 - -
18.10.2018 20:00:00 13,8 12,4 5 3 SSE 1009,9 20 -
18.10.2018 19:00:00 13,9 12,1 8 4 ESE 1009,6 - -
18.10.2018 18:00:00 14,0 12,0 11 6 E 1009,2 - -
18.10.2018 17:00:00 14,4 12,1 13 7 E 1008,6 30 -
18.10.2018 16:00:00 14,1 12,1 11 6 NE 1008,9 - -
18.10.2018 15:00:00 13,9 12,8 15 8 NNE 1009,0 - -
18.10.2018 14:00:00 14,4 12,6 4 2 S 1009,6 10 -
18.10.2018 13:00:00 13,8 12,9 9 5 SSE 1009,7 - -
18.10.2018 12:00:00 13,6 12,7 8 4 SSW 1008,9 - -
18.10.2018 11:00:00 13,0 12,4 16 9 WSW 1009,3 6 -
18.10.2018 10:00:00 16,2 15,2 8 4 E 1007,5 - -
18.10.2018 09:00:00 15,6 14,6 11 6 NE 1007,2 - -
18.10.2018 08:00:00 15,8 15,3 8 4 E 1007,7 8 -
18.10.2018 07:00:00 16,0 15,5 4 2 ESE 1008,6 - -
18.10.2018 06:00:00 16,7 15,9 4 2 NNE 1008,7 - -
18.10.2018 05:00:00 17,4 15,9 8 4 S 1009,3 - -
18.10.2018 04:00:00 17,3 15,6 4 2 WNW 1010,3 - -
18.10.2018 03:00:00 17,2 15,2 5 3 W 1010,7 - -
18.10.2018 02:00:00 17,5 15,3 8 4 W 1011,6 - -
18.10.2018 01:00:00 17,9 15,0 9 5 WSW 1012,3 - -
18.10.2018 00:00:00 17,6 14,3 9 5 SW 1013,0 - -
17.10.2018 23:00:00 17,8 13,7 9 5 SW 1013,2 - -
17.10.2018 22:00:00 18,2 13,7 5 3 SSW 1013,0 - -
17.10.2018 21:00:00 19,6 15,0 4 2 SSW 1012,8 - -
17.10.2018 20:00:00 21,4 13,1 8 4 W 1012,5 40 -
17.10.2018 19:00:00 24,6 12,4 9 5 W 1012,1 - -
17.10.2018 18:00:00 26,4 10,5 8 4 WSW 1012,6 - -
17.10.2018 17:00:00 26,9 11,7 5 3 SSW 1013,3 40 116,0
17.10.2018 16:00:00 26,1 11,0 5 3 SSW 1013,9 - -
17.10.2018 15:00:00 24,9 12,9 8 4 S 1014,9 - -
17.10.2018 14:00:00 23,0 13,0 4 2 ESE 1016,2 40 -
17.10.2018 13:00:00 22,0 13,7 8 4 E 1017,1 - -
17.10.2018 12:00:00 20,1 13,5 11 6 E 1017,5 - -
17.10.2018 11:00:00 17,6 13,3 8 4 E 1018,1 30 -
17.10.2018 10:00:00 15,4 13,5 0 0 N 1018,0 - -
17.10.2018 09:00:00 12,1 11,6 4 2 SW 1017,9 - -
17.10.2018 08:00:00 12,0 11,5 0 0 N 1017,6 30 -
17.10.2018 07:00:00 12,3 11,8 0 0 N 1017,4 - -

tt = Température de l'air
td = dewpoint
ff = Vitesse du vent
dd = Direction du vent
ppp = reduced air pressure
vv = visibility
rr = Quantités de précipitations

stations d'obs. à proximité